HB9FHL-13 Weather Reports


time (UTC)temp
C
wind
direction
speed
KPH
gust
KPH
rain 1hr
cm
rain 24hr
cm
rain mn
cm
humidity
%
barometer
mb
20260506181042 10 218 6.4 12.9 0.00 0.00 0.97 1006.4
20260506180542 10 226 8.0 14.5 0.00 0.00 0.97 1011.7
20260506180041 10 236 6.4 12.9 0.00 0.00 0.97 1010.6
20260506175541 10 228 6.4 12.9 0.00 0.00 0.97 1007.6
20260506175040 10 228 3.2 8.0 0.00 0.00 0.97 1006.6
20260506174540 11 222 6.4 11.3 0.00 0.00 0.97 1011.0
20260506174039 10 257 4.8 12.9 0.00 0.00 0.97 1012.2
20260506173539 10 236 8.0 17.7 0.00 0.00 0.97 1008.9
20260506173038 10 242 8.0 14.5 0.00 0.00 0.97 1011.5
20260506172538 10 235 11.3 20.9 0.00 0.00 0.97 1006.1
20260506172037 10 238 11.3 25.7 0.00 0.00 0.97 1003.8
20260506171537 10 232 12.9 27.4 0.00 0.00 0.97 1001.0
20260506171036 11 232 12.9 20.9 0.00 0.00 0.97 1015.9
20260506170536 10 238 17.7 35.4 0.00 0.00 0.97 1007.8
20260506170035 11 219 12.9 25.7 0.00 0.00 0.97 1002.9
20260506165535 10 250 12.9 24.1 0.00 0.00 0.97 1006.9
20260506165034 10 229 14.5 29.0 0.00 0.00 0.97 1010.9
20260506164533 11 242 14.5 25.7 0.00 0.00 0.94 1013.7
20260506164033 11 225 14.5 25.7 0.00 0.00 0.94 1006.8
20260506163532 10 240 14.5 24.1 0.00 0.00 0.94 1001.9
20260506163032 10 264 14.5 24.1 0.00 0.00 0.94 1020.1
20260506162531 10 236 11.3 17.7 0.00 0.00 0.94 1006.5
20260506161519 9 236 14.5 24.1 0.00 0.00 0.94 1011.3
20260506161018 9 231 11.3 19.3 0.00 0.00 0.94 1002.7
20260506160517 11 240 11.3 24.1 0.00 0.00 0.94 1013.3
20260506160017 10 221 14.5 24.1 0.00 0.00 0.94 1009.0
20260506155516 10 239 12.9 22.5 0.00 0.00 0.94 1008.5
20260506155016 10 229 12.9 30.6 0.00 0.00 0.94 1002.5
20260506154518 11 246 12.9 32.2 0.00 0.00 0.94 1014.6
20260506154015 9 218 9.7 16.1 0.00 0.00 0.94 1009.5
20260506153514 10 253 9.7 17.7 0.00 0.00 0.94 1010.1
20260506153014 10 226 11.3 19.3 0.00 0.00 0.94 1014.9
20260506152512 10 225 9.7 16.1 0.00 0.00 0.94 1012.4
20260506152011 9 308 8.0 14.5 0.00 0.00 0.94 1008.4
20260506151510 10 249 4.8 9.7 0.00 0.00 0.94 1007.5
20260506151009 8 255 4.8 9.7 0.00 0.00 0.94 1007.5
20260506150509 9 228 3.2 6.4 0.00 0.00 0.94 1006.5
20260506150008 9 243 1.6 6.4 0.00 0.00 0.94 1008.9
20260506145507 9 284 3.2 11.3 0.00 0.00 0.94 1008.8
20260506145007 10 256 3.2 6.4 0.00 0.00 0.94 1009.0
20260506144504 10 266 3.2 6.4 0.00 0.00 0.94 1008.9
20260506144003 10 239 3.2 6.4 0.00 0.00 0.94 1008.4
20260506143503 10 243 3.2 8.0 0.00 0.00 0.94 1006.9
20260506143002 10 256 6.4 11.3 0.00 0.00 0.94 1006.7
20260506142502 10 270 3.2 6.4 0.00 0.00 0.94 1007.7
20260506142000 10 305 4.8 9.7 0.00 0.00 0.94 1009.5
20260506141458 10 256 8.0 11.3 0.00 0.00 0.94 1006.6
20260506140456 10 242 12.9 19.3 0.00 0.00 0.94 1010.4
20260506135956 9 243 14.5 24.1 0.00 0.00 0.91 1012.5
20260506135455 10 239 14.5 27.4 0.00 0.00 0.91 1006.9
20260506134955 8 231 14.5 20.9 0.00 0.00 0.91 1000.1
20260506134454 11 240 16.1 27.4 0.00 0.00 0.89 1005.0
20260506133452 9 236 14.5 24.1 0.00 0.00 0.84 1009.1
20260506132951 10 239 17.7 27.4 0.00 0.00 0.81 1011.5
20260506132451 10 239 16.1 27.4 0.00 0.00 0.79 1010.1
20260506131950 10 212 17.7 29.0 0.00 0.00 0.76 1009.8
20260506131450 10 242 19.3 32.2 0.00 0.00 0.74 1005.8
20260506130447 9 238 17.7 32.2 0.00 0.00 0.69 999.1
20260506125947 8 240 19.3 32.2 0.00 0.00 0.64 1017.3
20260506125446 9 238 20.9 32.2 0.00 0.00 0.56 1011.6
20260506124946 8 231 20.9 38.6 0.00 0.00 0.48 1003.8
20260506124445 10 246 17.7 29.0 0.00 0.00 0.41 1006.0
20260506123945 10 245 16.1 29.0 0.00 0.00 0.36 1004.4
20260506123444 10 238 17.7 29.0 0.00 0.00 0.30 996.4
20260506122943 9 233 20.9 41.8 0.00 0.00 0.23 1002.9
20260506122443 9 225 14.5 37.0 0.00 0.00 0.15 1006.9
20260506121943 11 283 6.4 12.9 0.00 0.00 0.08 1005.6
20260506121443 10 245 8.0 12.9 0.00 0.00 0.05 1004.7
20260506120441 11 262 9.7 14.5 0.00 0.00 0.03 1004.8
20260506115940 10 280 6.4 11.3 0.00 0.00 0.03 1005.2
20260506115438 11 257 6.4 9.7 0.00 0.00 0.03 1004.8
20260506114937 11 256 4.8 9.7 0.00 0.00 0.00 1005.2
20260506114437 11 235 9.7 19.3 0.00 0.00 0.00 1005.2
20260506113437 11 266 9.7 14.5 0.00 0.00 0.00 1006.9
20260506112937 11 253 8.0 14.5 0.00 0.00 0.00 1001.9
20260506112434 12 243 1.6 6.4 0.00 0.00 0.00 1003.7
20260506111935 12 328 1.6 6.4 0.00 0.00 0.00 1004.2
20260506111432 12 1 1.6 6.4 0.00 0.00 0.00 1005.2
20260506110428 12 18 1.6 6.4 0.00 0.00 0.00 1007.0
20260506105928 13 328 1.6 6.4 0.00 0.00 0.00 1004.0
20260506105427 12 6 1.6 4.8 0.00 0.00 0.00 1007.7
20260506104426 12 30 4.8 8.0 0.00 0.00 0.00 1005.5
20260506103926 12 359 3.2 8.0 0.00 0.00 0.00 1005.9
20260506103425 12 37 4.8 8.0 0.00 0.00 0.00 997.8
20260506102923 11 1 3.2 8.0 0.00 0.00 0.00 1006.5
20260506102422 12 20 1.6 6.4 0.00 0.00 0.00 1008.1
20260506101922 12 18 1.6 6.4 0.00 0.00 0.00 1007.1
20260506101421 12 23 4.8 8.0 0.00 0.00 0.00 1004.9
20260506100920 12 30 6.4 11.3 0.00 0.00 0.00 1006.8
20260506100420 12 24 3.2 4.8 0.00 0.00 0.00 1004.9
20260506095920 12 25 4.8 11.3 0.00 0.00 0.00 1003.8
20260506095416 12 41 4.8 9.7 0.00 0.00 0.00 1002.9
20260506094916 12 11 8.0 12.9 0.00 0.00 0.00 1007.1
20260506094415 12 84 6.4 9.7 0.00 0.00 0.00 1006.5
20260506093914 12 58 6.4 11.3 0.00 0.00 0.00 1006.6
20260506093412 12 15 3.2 12.9 0.00 0.00 0.00 1004.6
20260506092912 12 18 3.2 9.7 0.00 0.00 0.00 1006.8
20260506092411 12 290 0.0 4.8 0.00 0.00 0.00 1005.4
20260506091911 12 332 3.2 9.7 0.00 0.00 0.00 1004.9
20260506091409 12 322 1.6 6.4 0.00 0.00 0.00 1004.2
20260506090908 12 338 1.6 8.0 0.00 0.00 0.00 1004.4
20260506090408 12 55 4.8 9.7 0.00 0.00 0.00 1007.2
20260506085909 12 39 3.2 8.0 0.00 0.00 0.00 1005.4
20260506085407 12 264 1.6 6.4 0.00 0.00 0.00 1007.7
20260506084906 12 326 3.2 8.0 0.00 0.00 0.00 1006.0
20260506084405 12 330 1.6 8.0 0.00 0.00 0.00 1009.4
20260506083904 12 330 1.6 8.0 0.00 0.00 0.00 1006.0
20260506083404 11 329 1.6 6.4 0.00 0.00 0.00 1005.6
20260506082903 11 240 0.0 0.0 0.00 0.00 0.00 1010.0
20260506082403 11 259 0.0 4.8 0.00 0.00 0.00 1005.4
20260506081903 11 333 1.6 3.2 0.00 0.00 0.00 1005.8
20260506081357 11 322 0.0 4.8 0.00 0.00 0.00 1007.4
20260506080857 12 293 0.0 3.2 0.00 0.00 0.00 1008.0
20260506080357 12 332 1.6 4.8 0.00 0.00 0.00 1006.6
20260506073354 11 336 3.2 6.4 0.00 0.00 0.00 1007.1
20260506072853 11 0 0.0 0.0 0.00 0.00 0.00 1005.0
20260506072353 11 264 1.6 3.2 0.00 0.00 0.00 1006.7
20260506071852 11 0 0.0 0.0 0.00 0.00 0.00 1001.9
20260506071352 11 0 0.0 0.0 0.00 0.00 0.00 1003.2
20260506070851 11 255 1.6 3.2 0.00 0.00 0.00 1006.1
20260506070351 11 245 0.0 4.8 0.00 0.00 0.00 1004.7
20260506062346 11 41 1.6 4.8 0.00 0.00 0.00 1005.4
20260506061846 11 17 4.8 6.4 0.00 0.00 0.00 1007.8
20260506061344 11 60 3.2 8.0 0.00 0.00 0.00 1009.1
20260506060843 11 89 3.2 3.2 0.00 0.00 0.00 1007.2
20260506060342 11 101 3.2 4.8 0.00 0.00 0.00 1009.8
20260506051337 11 0 0.0 0.0 0.00 0.00 0.00 1005.4
20260506050836 11 0 0.0 0.0 0.00 0.00 0.00 1001.2
20260506050336 11 0 0.0 0.0 0.00 0.00 0.00 1007.6
20260506044833 11 0 0.0 0.0 0.00 0.00 0.00 1006.8
20260506044329 11 120 1.6 8.0 0.00 0.00 0.00 1006.2
20260506043829 11 155 1.6 6.4 0.00 0.00 0.00 1005.9
20260506043328 11 98 0.0 6.4 0.00 0.00 0.00 1004.6
20260506042828 10 0 0.0 0.0 0.00 0.00 0.00 1005.6
20260506042327 10 0 0.0 0.0 0.00 0.00 0.00 1009.0
20260506041827 10 0 0.0 0.0 0.00 0.00 0.00 1004.5
20260506041326 10 0 0.0 0.0 0.00 0.00 0.00 1006.2
20260506040826 11 121 1.6 6.4 0.00 0.00 0.00 1007.2
20260506040323 11 98 1.6 6.4 0.00 0.00 0.00 1006.6
20260506035822 12 131 0.0 3.2 0.00 0.00 0.00 1004.7
20260506035320 11 0 0.0 0.0 0.00 0.00 0.00 1008.6
20260506034819 10 0 0.0 0.0 0.00 0.00 0.00 1007.1
20260506034318 11 0 0.0 0.0 0.00 0.00 0.00 1007.4
20260506033317 12 0 0.0 0.0 0.00 0.00 0.00 1007.1
20260506032316 12 0 0.0 0.0 0.00 0.00 0.00 1005.4
20260506031816 11 93 0.0 1.6 0.00 0.00 0.00 1008.3
20260506031316 11 0 0.0 0.0 0.00 0.00 0.00 1011.4
20260506030815 11 0 0.0 0.0 0.00 0.00 0.00 1005.7
20260506030311 11 0 0.0 0.0 0.00 0.00 0.00 1007.2
20260506025810 11 0 0.0 0.0 0.00 0.00 0.00 1008.9
20260506025310 11 6 0.0 1.6 0.00 0.00 0.00 1010.6
20260506024809 12 0 0.0 0.0 0.00 0.00 0.00 1008.0
20260506024309 11 236 0.0 0.0 0.00 0.00 0.00 1006.4
20260506023808 11 132 0.0 3.2 0.00 0.00 0.00 1007.5
20260506023308 11 121 0.0 3.2 0.00 0.00 0.00 1010.8
20260506022807 11 0 0.0 0.0 0.00 0.00 0.00 1006.4
20260506022307 11 0 0.0 0.0 0.00 0.00 0.00 1006.8
20260506021806 11 0 0.0 0.0 0.00 0.00 0.00 1008.8
20260506021306 11 201 0.0 0.0 0.00 0.00 0.00 1009.0
20260506020805 11 0 0.0 0.0 0.00 0.00 0.00 1008.4
20260506020305 12 0 0.0 0.0 0.00 0.00 0.00 1011.0
20260506015804 12 0 0.0 0.0 0.00 0.00 0.00 1005.8
20260506015306 12 0 0.0 0.0 0.00 0.00 0.00 1008.7
20260506014803 12 233 1.6 4.8 0.00 0.00 0.00 1009.8
20260506014303 12 215 6.4 11.3 0.00 0.00 0.00 1008.7
20260506013802 12 225 6.4 9.7 0.00 0.00 0.00 1007.7
20260506013302 12 249 6.4 12.9 0.00 0.00 0.00 1011.4
20260506012801 12 233 6.4 14.5 0.00 0.00 0.00 1013.3
20260506011800 12 217 6.4 14.5 0.00 0.00 0.00 1009.1
20260506011300 12 238 8.0 24.1 0.00 0.00 0.00 1009.9
20260506010759 12 226 9.7 20.9 0.00 0.00 0.00 1005.4
20260506010259 13 240 12.9 22.5 0.00 0.00 0.00 1010.6
20260506005756 13 225 9.7 17.7 0.00 0.00 0.00 1004.9
20260506005256 12 232 9.7 16.1 0.00 0.00 0.00 1005.9
20260506004756 11 228 9.7 19.3 0.00 0.00 0.00 1006.5
20260506004255 12 222 8.0 14.5 0.00 0.00 0.00 1007.5
20260506003755 12 233 8.0 12.9 0.00 0.00 0.00 1009.7
20260506003254 13 229 9.7 16.1 0.00 0.00 0.00 1012.4
20260506002754 12 232 6.4 9.7 0.00 0.00 0.00 1008.7
20260506002253 13 229 8.0 14.5 0.00 0.00 0.00 1004.7
20260506001753 12 243 9.7 16.1 0.00 0.00 0.00 1007.2
20260506001254 13 233 11.3 17.7 0.00 0.00 0.00 1010.0
20260506000752 12 252 3.2 16.1 0.00 0.00 0.00 1009.3
20260506000251 12 0 0.0 0.0 0.00 0.00 0.00 1009.8
20260505235751 13 228 1.6 8.0 0.00 0.00 0.00 1006.5
20260505235250 12 232 8.0 17.7 0.00 0.00 0.00 1009.7
20260505234750 12 253 4.8 9.7 0.00 0.00 0.00 1010.5
20260505234249 12 243 4.8 8.0 0.00 0.00 0.00 1008.6
20260505233749 13 225 4.8 9.7 0.00 0.00 0.00 1007.0
20260505233248 12 240 8.0 14.5 0.00 0.00 0.00 1010.7
20260505232748 13 243 6.4 11.3 0.00 0.00 0.00 1013.0
20260505232247 12 217 8.0 14.5 0.00 0.00 0.00 1004.2
20260505231748 13 243 9.7 16.1 0.00 0.00 0.00 1007.2
20260505231246 12 240 9.7 16.1 0.00 0.00 0.00 1009.6
20260505230746 13 243 9.7 14.5 0.00 0.00 0.00 1008.1
20260505230245 12 208 9.7 17.7 0.00 0.00 0.00 1008.3
20260505225745 12 228 9.7 16.1 0.00 0.00 0.00 1007.1
20260505225244 13 225 8.0 14.5 0.00 0.00 0.00 1007.0
20260505224744 13 232 11.3 17.7 0.00 0.00 0.00 1007.0
20260505224243 13 225 6.4 16.1 0.00 0.00 0.00 1011.3
20260505223742 13 252 6.4 14.5 0.00 0.00 0.00 1011.7
20260505223242 13 238 8.0 11.3 0.00 0.00 0.00 1013.2
20260505222741 13 217 9.7 17.7 0.00 0.00 0.00 1011.7
20260505222243 12 221 8.0 16.1 0.00 0.00 0.00 1003.0
20260505221740 12 212 8.0 14.5 0.00 0.00 0.00 1013.9
20260505221240 12 240 4.8 14.5 0.00 0.00 0.00 1008.7
20260505220739 12 238 4.8 11.3 0.00 0.00 0.00 1010.6
20260505220236 12 221 6.4 9.7 0.00 0.00 0.00 1010.0
20260505215736 12 246 4.8 9.7 0.00 0.00 0.00 1006.4
20260505215235 12 238 6.4 11.3 0.00 0.00 0.00 1009.6
20260505214735 13 243 6.4 12.9 0.00 0.00 0.00 1009.6
20260505214234 12 231 6.4 14.5 0.00 0.00 0.00 1007.1
20260505213738 12 236 6.4 12.9 0.00 0.00 0.00 1009.8
20260505213233 13 231 6.4 12.9 0.00 0.00 0.00 1008.3
20260505212733 12 245 8.0 14.5 0.00 0.00 0.00 1005.9
20260505212232 12 233 8.0 16.1 0.00 0.00 0.00 1009.1
20260505211732 12 221 8.0 14.5 0.00 0.00 0.00 1011.8
20260505211230 12 214 11.3 20.9 0.00 0.00 0.00 1010.5
20260505210729 13 231 9.7 20.9 0.00 0.00 0.00 1006.2
20260505210225 13 232 12.9 22.5 0.00 0.00 0.00 1009.8
20260505205725 13 231 11.3 22.5 0.00 0.00 0.00 1002.9
20260505205224 13 232 9.7 17.7 0.00 0.00 0.00 1007.4
20260505204219 12 252 9.7 16.1 0.00 0.00 0.00 1006.6
20260505203719 12 222 9.7 17.7 0.00 0.00 0.00 1007.8
20260505203218 12 242 11.3 16.1 0.00 0.00 0.00 1010.6
20260505202217 12 235 11.3 19.3 0.00 0.00 0.00 1011.7
20260505201716 12 215 9.7 16.1 0.00 0.00 0.00 1007.7
20260505201216 12 231 9.7 14.5 0.00 0.00 0.00 1004.2
20260505200716 12 229 8.0 14.5 0.00 0.00 0.00 1008.0
20260505200215 12 222 8.0 16.1 0.00 0.00 0.00 1012.6
20260505200157 12 243 11.3 19.3 0.00 0.00 0.00 1009.5
20260505195715 12 243 11.3 19.3 0.00 0.00 0.00 1009.5
20260505195619 12 222 11.3 19.3 0.00 0.00 0.00 1008.4
20260505195214 12 222 11.3 19.3 0.00 0.00 0.00 1008.4
20260505194714 12 212 9.7 17.7 0.00 0.00 0.00 1001.5
20260505194213 11 215 8.0 12.9 0.00 0.00 0.00 1008.1
20260505193713 12 214 8.0 17.7 0.00 0.00 0.00 1007.4
20260505193212 12 240 9.7 20.9 0.00 0.00 0.00 1007.2
20260505192712 12 242 11.3 27.4 0.00 0.00 0.00 1012.2
20260505192211 13 200 11.3 17.7 0.00 0.00 0.00 1011.3
20260505191711 12 233 9.7 16.1 0.00 0.00 0.00 1010.6
20260505191210 12 225 9.7 17.7 0.00 0.00 0.00 1004.5
20260505190710 13 229 9.7 20.9 0.00 0.00 0.00 1009.5
20260505190209 11 226 9.7 20.9 0.00 0.00 0.00 1014.2
20260505185709 11 226 9.7 17.7 0.00 0.00 0.00 1004.8
20260505185208 11 215 8.0 17.7 0.00 0.00 0.00 1004.6
20260505184708 12 226 11.3 19.3 0.00 0.00 0.00 1002.7
20260505184207 12 232 12.9 24.1 0.00 0.00 0.00 1004.9
20260505183707 11 233 11.3 19.3 0.00 0.00 0.00 1006.0
20260505183206 13 222 14.5 22.5 0.00 0.00 0.00 1005.1
20260505182704 12 236 17.7 27.4 0.00 0.00 0.00 1020.1
20260505182205 11 233 16.1 30.6 0.00 0.00 0.00 1006.9
20260505181703 11 231 19.3 29.0 0.00 0.00 0.00 1015.8